Regional Weather Roundup
Issued by NWS Little Rock, AR

Home | Current Version | Previous Version | Graphics & Text | Print | Product List | Glossary On
Versions: 1 2 3 4 5 6 7 8 9 10 11 12 13 14 15 16 17 18 19 20 21 22 23 24 25 26 27 28 29 30 31 32 33 34 35 36 37 38 39 40 41 42 43 44 45 46 47 48 49 50
000
ASUS44 KLZK 261005
RWRLZK

WEATHER ROUNDUP FOR ARKANSAS
NATIONAL WEATHER SERVICE LITTLE ROCK AR
400 AM CST FRI DEC 26 2014

NOTE: "FAIR" INDICATES FEW OR NO CLOUDS BELOW 12,000 FEET WITH NO
SIGNIFICANT WEATHER AND/OR OBSTRUCTIONS TO VISIBILITY.

ARZ001-003-010-029-261100-
NORTHWEST ARKANSAS

CITY           SKY/WX    TMP DP  RH WIND       PRES   REMARKS
FAYETTEVILLE   PTCLDY    46  39  76 S14G24    29.98S
FORT SMITH     MOCLDY    39  33  79 CALM      30.01F
HARRISON       PTCLDY    42  37  82 S9        30.00S
BENTONVILLE    CLEAR     46  36  66 S10       29.97S
ROGERS         PTCLDY    46  38  73 S16       29.97S
SILOAM SPGS    MOCLDY    46  34  61 S12G17    29.98S
HIGHFILL       MOCLDY    47  39  74 S13       29.96R
$$

ARZ004-005-016-261100-
NORTH CENTRAL ARKANSAS

CITY           SKY/WX    TMP DP  RH WIND       PRES   REMARKS
BATESVILLE     PTCLDY    45  36  70 S5        30.11S
FLIPPIN        PTCLDY    43  34  70 S5        30.03S
MTN HOME       PTCLDY    43  37  79 S8        30.03S
$$

ARZ040-041-261100-
WEST CENTRAL ARKANSAS

CITY           SKY/WX    TMP DP  RH WIND       PRES   REMARKS
MENA           CLOUDY    52  45  76 S3        30.04F
MOUNT IDA      CLOUDY    49  42  77 VRB3      30.05S
$$

ARZ009-017-025-026-028-261100-
NORTHEAST ARKANSAS

CITY           SKY/WX    TMP DP  RH WIND       PRES   REMARKS
CORNING        FAIR      41  36  81 S12       30.13F
JONESBORO      PTCLDY    37  35  92 S8        30.14F
NEWPORT        PTCLDY    39  36  89 SE7       30.14S
WALNUT RIDGE   PTCLDY    39  34  81 S13       30.11F
BLYTHEVILLE    PTCLDY    40  36  86 S9        30.17F
$$

ARZ022-023-033-042-044-261100-
CENTRAL ARKANSAS

CITY           SKY/WX    TMP DP  RH WIND       PRES   REMARKS
LITTLE ROCK    PTCLDY    40  34  79 CALM      30.13F
N LITTLE ROCK    N/A     42  39  88 S7        30.13F
JACKSONVILLE   CLOUDY    37  35  92 CALM      30.12F
SEARCY         PTCLDY    39  36  89 S8        30.14S
HOT SPRINGS    PTCLDY    45  40  82 S6        30.10F
RUSSELLVILLE   PTCLDY    38  35  89 CALM      30.06F
CLINTON        CLOUDY    39  37  93 CALM      30.10F
$$

ARZ036-261100-
EAST ARKANSAS

CITY           SKY/WX    TMP DP  RH WIND       PRES   REMARKS
WEST MEMPHIS   CLOUDY    42  38  85 S12       30.18R
$$

ARZ050-053-066-070-073-261100-
SOUTHWEST ARKANSAS

CITY           SKY/WX    TMP DP  RH WIND       PRES   REMARKS
ARKADELPHIA    FAIR      37  37 100 CALM      30.13S
CAMDEN         CLOUDY    39  36  87 MISG      30.14S
TEXARKANA      CLOUDY    44  42  93 SE7       30.08F
EL DORADO      MOCLDY    44  38  79 SE6       30.14S
DE QUEEN       CLOUDY    45  41  86 E6        30.06F
$$

ARZ056-057-069-261100-
SOUTHEAST ARKANSAS

CITY           SKY/WX    TMP DP  RH WIND       PRES   REMARKS
PINE BLUFF     CLOUDY    43  36  76 S9        30.14F
STUTTGART      CLOUDY    45  36  70 SE10      30.14F
MONTICELLO     PTCLDY    40  35  83 S7        30.16S

$$




USA.gov is the U.S. government's official web portal to all federal, state and local government web resources and services.